Radiation Dose at Monitoring Post of Fukushima Daini Nuclear Power Station
Date,Time,MP-1(microSv/h),MP-2(microSv/h),MP-3(microSv/h),MP-4(microSv/h),MP-5(microSv/h),MP-6(microSv/h),MP-7(microSv/h),Wind Direction,Wind Velocity(m/s),Rain
2018/11/26,00:00,0.313,0.192,0.306,0.295,0.280,0.156,0.095,southwest,2.4,No
2018/11/26,00:10,0.313,0.190,0.305,0.294,0.281,0.155,0.096,southwest,2.2,No
2018/11/26,00:20,0.311,0.191,0.305,0.294,0.279,0.155,0.095,west-southwest,2.5,No
2018/11/26,00:30,0.313,0.192,0.307,0.295,0.280,0.154,0.095,west-southwest,2.9,No
2018/11/26,00:40,0.312,0.191,0.306,0.294,0.280,0.155,0.094,west-southwest,3.2,No
2018/11/26,00:50,0.312,0.192,0.306,0.293,0.280,0.156,0.094,west,3.7,No
2018/11/26,01:00,0.312,0.192,0.306,0.296,0.282,0.156,0.095,west-northwest,4.6,No
2018/11/26,01:10,0.312,0.190,0.305,0.295,0.279,0.155,0.094,west-northwest,3.4,No
2018/11/26,01:20,0.312,0.192,0.307,0.294,0.280,0.156,0.095,west-northwest,3.3,No
2018/11/26,01:30,0.313,0.191,0.307,0.294,0.280,0.155,0.094,west-northwest,4.2,No
2018/11/26,01:40,0.313,0.191,0.306,0.293,0.278,0.155,0.095,west,5.6,No
2018/11/26,01:50,0.313,0.191,0.305,0.294,0.281,0.155,0.095,west-northwest,6.6,No
2018/11/26,02:00,0.312,0.191,0.306,0.294,0.281,0.155,0.095,west-northwest,4.2,No
2018/11/26,02:10,0.311,0.191,0.305,0.294,0.280,0.156,0.095,west-southwest,2.4,No
2018/11/26,02:20,0.312,0.191,0.306,0.295,0.280,0.155,0.095,southwest,3.5,No
2018/11/26,02:30,0.312,0.191,0.307,0.294,0.280,0.155,0.095,west,3.5,No
2018/11/26,02:40,0.310,0.191,0.305,0.294,0.280,0.154,0.095,west-northwest,2.5,No
2018/11/26,02:50,0.312,0.192,0.306,0.295,0.279,0.155,0.094,west,2.3,No
2018/11/26,03:00,0.313,0.192,0.306,0.294,0.279,0.155,0.094,west-southwest,2.0,No
2018/11/26,03:10,0.312,0.190,0.304,0.295,0.280,0.155,0.094,west,3.7,No
2018/11/26,03:20,0.313,0.192,0.306,0.295,0.279,0.155,0.095,west,3.4,No
2018/11/26,03:30,0.312,0.192,0.306,0.293,0.281,0.155,0.095,southwest,2.4,No
2018/11/26,03:40,0.311,0.192,0.304,0.294,0.280,0.155,0.094,southwest,1.5,No
2018/11/26,03:50,0.312,0.191,0.306,0.293,0.279,0.155,0.095,west-southwest,2.5,No
2018/11/26,04:00,0.312,0.189,0.304,0.293,0.281,0.155,0.094,west,1.4,No
2018/11/26,04:10,0.312,0.191,0.304,0.293,0.278,0.155,0.095,-,CALM,No
2018/11/26,04:20,0.312,0.191,0.307,0.294,0.282,0.155,0.094,north-northeast,1.2,No
2018/11/26,04:30,0.311,0.191,0.305,0.293,0.279,0.155,0.095,northwest,1.6,No
2018/11/26,04:40,0.312,0.191,0.304,0.295,0.280,0.155,0.094,west,1.2,No
2018/11/26,04:50,0.313,0.192,0.307,0.295,0.279,0.155,0.095,southeast,0.6,No
2018/11/26,05:00,0.310,0.190,0.307,0.294,0.279,0.154,0.095,northeast,0.8,No
2018/11/26,05:10,0.310,0.192,0.306,0.295,0.280,0.154,0.094,northeast,0.9,No
2018/11/26,05:20,0.312,0.192,0.306,0.295,0.278,0.155,0.094,north-northwest,1.0,No
2018/11/26,05:30,0.312,0.192,0.306,0.294,0.280,0.156,0.094,north-northwest,5.1,No
2018/11/26,05:40,0.312,0.191,0.305,0.293,0.281,0.155,0.096,north-northwest,5.7,No
2018/11/26,05:50,0.312,0.192,0.307,0.294,0.279,0.155,0.095,north-northwest,5.2,No
2018/11/26,06:00,0.311,0.192,0.306,0.293,0.279,0.155,0.095,north-northwest,7.7,No
2018/11/26,06:10,0.311,0.190,0.305,0.294,0.280,0.155,0.096,north-northwest,7.4,No
2018/11/26,06:20,0.313,0.191,0.306,0.294,0.280,0.155,0.094,northwest,7.1,No
2018/11/26,06:30,0.311,0.191,0.305,0.293,0.280,0.156,0.094,northwest,7.7,No
2018/11/26,06:40,0.312,0.192,0.305,0.296,0.281,0.155,0.094,northwest,6.7,No
2018/11/26,06:50,0.312,0.191,0.306,0.296,0.280,0.155,0.095,northwest,6.5,No
2018/11/26,07:00,0.312,0.191,0.306,0.294,0.279,0.155,0.094,northwest,5.5,No
2018/11/26,07:10,0.312,0.191,0.306,0.293,0.279,0.155,0.096,northwest,5.2,No
2018/11/26,07:20,0.313,0.190,0.305,0.296,0.281,0.156,0.094,northwest,6.1,No
2018/11/26,07:30,0.311,0.194,0.307,0.295,0.279,0.156,0.094,north-northwest,6.1,No
2018/11/26,07:40,0.312,0.192,0.307,0.293,0.280,0.154,0.094,north-northwest,6.4,No
2018/11/26,07:50,0.312,0.191,0.306,0.295,0.281,0.155,0.094,north-northwest,5.6,No
2018/11/26,08:00,0.314,0.191,0.306,0.292,0.279,0.155,0.094,north-northwest,5.1,No
2018/11/26,08:10,0.310,0.192,0.306,0.293,0.280,0.154,0.094,north-northwest,5.0,No
2018/11/26,08:20,0.315,0.191,0.305,0.293,0.280,0.155,0.095,north-northwest,4.0,No
2018/11/26,08:30,0.310,0.191,0.307,0.294,0.279,0.153,0.094,north-northwest,2.9,No
2018/11/26,08:40,0.311,0.191,0.306,0.294,0.280,0.155,0.095,north-northwest,3.0,No
2018/11/26,08:50,0.313,0.190,0.305,0.293,0.279,0.155,0.095,north,3.0,No
2018/11/26,09:00,0.311,0.191,0.306,0.291,0.280,0.154,0.094,north-northwest,2.9,No
2018/11/26,09:10,0.312,0.191,0.305,0.294,0.278,0.154,0.094,northeast,3.9,No
2018/11/26,09:20,0.312,0.190,0.304,0.291,0.280,0.155,0.094,north,2.9,No
2018/11/26,09:30,0.311,0.191,0.306,0.293,0.278,0.154,0.094,north-northeast,2.1,No
2018/11/26,09:40,0.312,0.190,0.305,0.293,0.281,0.155,0.094,northeast,2.8,No
2018/11/26,09:50,0.310,0.191,0.305,0.292,0.278,0.155,0.094,northeast,2.9,No
2018/11/26,10:00,0.311,0.189,0.306,0.293,0.281,0.155,0.094,north-northeast,2.6,No
2018/11/26,10:10,0.307,0.191,0.305,0.292,0.277,0.155,0.094,northeast,2.7,No
2018/11/26,10:20,0.309,0.190,0.307,0.295,0.279,0.154,0.094,northeast,1.5,No
2018/11/26,10:30,0.301,0.189,0.304,0.293,0.280,0.155,0.095,northeast,3.8,No
2018/11/26,10:40,0.300,0.190,0.306,0.292,0.276,0.155,0.095,northeast,3.3,No
2018/11/26,10:50,0.306,0.191,0.305,0.296,0.279,0.154,0.094,east-northeast,3.7,No
2018/11/26,11:00,0.304,0.191,0.305,0.293,0.280,0.155,0.094,northeast,4.5,No
2018/11/26,11:10,0.303,0.190,0.305,0.293,0.278,0.155,0.094,northeast,3.6,No
2018/11/26,11:20,0.297,0.191,0.304,0.294,0.281,0.154,0.094,northeast,3.8,No
2018/11/26,11:30,0.300,0.190,0.306,0.291,0.279,0.154,0.094,northeast,4.7,No
2018/11/26,11:40,0.298,0.191,0.303,0.295,0.279,0.155,0.094,north-northeast,3.8,No
2018/11/26,11:50,0.280,0.190,0.305,0.293,0.280,0.155,0.094,north-northeast,3.8,No
2018/11/26,12:00,0.279,0.192,0.305,0.292,0.277,0.155,0.094,north-northeast,3.7,No
2018/11/26,12:10,0.281,0.190,0.303,0.293,0.280,0.154,0.094,northeast,5.2,No
2018/11/26,12:20,0.282,0.190,0.305,0.294,0.281,0.155,0.095,northeast,4.8,No
2018/11/26,12:30,0.282,0.191,0.304,0.291,0.278,0.155,0.094,northeast,4.1,No
2018/11/26,12:40,0.283,0.192,0.306,0.296,0.281,0.155,0.094,north-northeast,2.5,No
2018/11/26,12:50,0.284,0.191,0.304,0.292,0.278,0.155,0.094,northeast,3.2,No
2018/11/26,13:00,0.282,0.191,0.305,0.294,0.281,0.154,0.094,northeast,3.5,No
2018/11/26,13:10,0.283,0.190,0.306,0.294,0.281,0.155,0.095,east-northeast,4.9,No
2018/11/26,13:20,0.268,0.191,0.306,0.293,0.283,0.155,0.095,east-northeast,5.1,No
2018/11/26,13:30,0.272,0.190,0.306,0.295,0.279,0.155,0.095,east-northeast,5.0,No
2018/11/26,13:40,0.275,0.191,0.305,0.294,0.282,0.156,0.095,east-northeast,4.6,No
2018/11/26,13:50,0.277,0.191,0.305,0.293,0.279,0.154,0.095,east-northeast,4.5,No
2018/11/26,14:00,0.276,0.191,0.306,0.295,0.280,0.156,0.095,east-northeast,4.0,No
2018/11/26,14:10,0.276,0.190,0.306,0.294,0.280,0.154,0.094,east-northeast,2.3,No
2018/11/26,14:20,0.274,0.191,0.305,0.294,0.281,0.156,0.094,northeast,1.7,No
2018/11/26,14:30,0.276,0.192,0.308,0.296,0.279,0.154,0.094,east,0.9,No
2018/11/26,14:40,0.278,0.191,0.306,0.294,0.282,0.154,0.094,east,1.7,No
2018/11/26,14:50,0.275,0.191,0.306,0.296,0.280,0.155,0.094,east,1.4,No
2018/11/26,15:00,0.275,0.191,0.306,0.294,0.281,0.155,0.094,east,1.3,No
2018/11/26,15:10,0.273,0.191,0.306,0.295,0.279,0.155,0.095,east,1.9,No
2018/11/26,15:20,0.274,0.191,0.306,0.293,0.280,0.155,0.095,east-southeast,0.8,No
2018/11/26,15:30,0.270,0.192,0.305,0.295,0.279,0.155,0.095,east-southeast,0.8,No
2018/11/26,15:40,0.274,0.191,0.307,0.294,0.279,0.156,0.095,east,1.4,No
2018/11/26,15:50,0.274,0.192,0.305,0.294,0.282,0.155,0.094,east-southeast,1.2,No
2018/11/26,16:00,0.272,0.190,0.306,0.293,0.280,0.155,0.095,east,1.4,No
2018/11/26,16:10,0.274,0.191,0.307,0.294,0.282,0.154,0.095,east-southeast,0.6,No
2018/11/26,16:20,0.274,0.190,0.305,0.295,0.279,0.155,0.095,east-southeast,0.9,No
2018/11/26,16:30,0.271,0.190,0.307,0.295,0.281,0.155,0.095,east,0.8,No
2018/11/26,16:40,0.265,0.192,0.306,0.295,0.280,0.155,0.093,-,CALM,No
2018/11/26,16:50,0.262,0.191,0.306,0.296,0.280,0.155,0.094,-,CALM,No
2018/11/26,17:00,0.272,0.190,0.307,0.293,0.281,0.155,0.096,east-northeast,0.9,No
2018/11/26,17:10,0.271,0.192,0.305,0.296,0.280,0.155,0.094,east,1.0,No
2018/11/26,17:20,0.273,0.190,0.306,0.295,0.282,0.155,0.094,east-southeast,1.0,No
2018/11/26,17:30,0.273,0.192,0.305,0.293,0.281,0.154,0.095,east,0.7,No
2018/11/26,17:40,0.272,0.191,0.303,0.294,0.280,0.156,0.094,-,CALM,No
2018/11/26,17:50,0.274,0.191,0.305,0.294,0.281,0.156,0.095,-,CALM,No
2018/11/26,18:00,0.273,0.192,0.305,0.294,0.280,0.155,0.095,-,CALM,No
2018/11/26,18:10,0.274,0.191,0.305,0.294,0.281,0.155,0.095,north-northeast,2.6,No
2018/11/26,18:20,0.273,0.191,0.306,0.294,0.280,0.156,0.095,northeast,2.7,No
2018/11/26,18:30,0.272,0.190,0.306,0.296,0.280,0.156,0.095,north,2.0,No
2018/11/26,18:40,0.273,0.190,0.306,0.295,0.281,0.156,0.095,north,3.1,No
2018/11/26,18:50,0.275,0.192,0.307,0.295,0.281,0.155,0.095,north,3.6,No
2018/11/26,19:00,0.274,0.192,0.306,0.295,0.279,0.155,0.095,north-northwest,2.6,No
2018/11/26,19:10,0.273,0.192,0.305,0.295,0.280,0.156,0.095,northwest,2.0,No
2018/11/26,19:20,0.273,0.192,0.307,0.295,0.281,0.155,0.094,northwest,2.2,No
2018/11/26,19:30,0.273,0.192,0.306,0.294,0.280,0.155,0.095,west-northwest,1.6,No
2018/11/26,19:40,0.271,0.192,0.306,0.296,0.280,0.154,0.095,west-northwest,1.0,No
2018/11/26,19:50,0.274,0.191,0.307,0.296,0.281,0.155,0.095,west,0.7,No
2018/11/26,20:00,0.273,0.192,0.305,0.295,0.280,0.156,0.095,west-southwest,0.8,No
2018/11/26,20:10,0.272,0.192,0.306,0.296,0.281,0.155,0.095,southwest,0.9,No
2018/11/26,20:20,0.273,0.191,0.306,0.294,0.280,0.156,0.094,south-southwest,1.0,No
2018/11/26,20:30,0.274,0.192,0.306,0.295,0.280,0.155,0.095,south-southwest,1.1,No
2018/11/26,20:40,0.273,0.192,0.306,0.295,0.281,0.155,0.095,south-southwest,1.6,No
2018/11/26,20:50,0.273,0.191,0.306,0.295,0.280,0.155,0.095,south-southwest,1.9,No
2018/11/26,21:00,0.274,0.192,0.308,0.295,0.279,0.155,0.095,south-southwest,1.7,No
2018/11/26,21:10,0.274,0.191,0.305,0.296,0.280,0.157,0.095,southwest,2.4,No
2018/11/26,21:20,0.274,0.190,0.306,0.295,0.281,0.157,0.095,southwest,3.2,No
2018/11/26,21:30,0.273,0.191,0.307,0.295,0.280,0.155,0.095,southwest,3.2,No
2018/11/26,21:40,0.272,0.192,0.308,0.294,0.280,0.156,0.095,south-southwest,2.4,No
2018/11/26,21:50,0.273,0.192,0.306,0.295,0.278,0.155,0.095,south-southwest,2.6,No
2018/11/26,22:00,0.274,0.192,0.307,0.294,0.281,0.156,0.095,south-southwest,2.4,No
2018/11/26,22:10,0.273,0.192,0.306,0.295,0.280,0.156,0.095,south-southwest,3.1,No
2018/11/26,22:20,0.274,0.191,0.305,0.296,0.279,0.155,0.095,south-southwest,3.2,No
2018/11/26,22:30,0.273,0.192,0.305,0.295,0.281,0.155,0.095,south-southwest,3.2,No
2018/11/26,22:40,0.273,0.191,0.307,0.295,0.281,0.156,0.094,south,4.4,No
2018/11/26,22:50,0.272,0.192,0.306,0.295,0.279,0.155,0.094,south,4.9,No
2018/11/26,23:00,0.272,0.191,0.306,0.294,0.280,0.156,0.094,south,4.3,No
2018/11/26,23:10,0.275,0.192,0.307,0.295,0.279,0.155,0.095,south,5.0,No
2018/11/26,23:20,0.273,0.192,0.304,0.294,0.280,0.156,0.095,south,4.5,No
2018/11/26,23:30,0.272,0.190,0.306,0.294,0.280,0.156,0.095,south,4.7,No
2018/11/26,23:40,0.274,0.191,0.307,0.294,0.279,0.155,0.095,south-southwest,5.4,No
2018/11/26,23:50,0.273,0.193,0.307,0.295,0.280,0.155,0.096,south-southwest,4.5,No
